Wind_Speed
67 62 59 59 57 54 51 48 47 44 42 41 40 40 40 41 41 43 44 44 41 41 42 43 47 48 48
60 56 54 52 51 48 46 45 42 42 42 40 40 40 40 41 43 45 46 46 45 44 43 42 42 46 50
56 53 52 49 46 45 44 44 44 40 36 35 35 36 36 37 38 41 44 46 47 48 48 46 43 43 41
53 53 50 45 42 45 45 37 39 35 32 36 32 32 33 34 36 38 41 43 43 45 47 48 50 48 44
50 48 42 41 42 41 40 39 38 38 39 37 34 35 33 32 34 35 37 38 40 42 43 44 46 49 51
44 42 42 41 37 39 41 41 39 36 40 40 39 37 38 37 36 37 38 39 40 41 40 42 44 45 48
41 39 38 35 38 38 39 42 43 41 42 44 39 40 39 35 31 32 34 36 38 39 39 40 42 43 44
33 32 34 35 37 39 41 46 46 41 40 46 41 42 37 29 24 26 31 31 30 30 31 32 33 35 38
26 28 30 32 35 39 42 44 44 38 33 44 43 43 34 24 22 24 26 26 27 27 27 28 29 31 34
27 27 28 30 32 36 38 40 41 40 35 42 43 43 35 30 29 27 26 25 28 30 31 30 29 31 33
29 29 31 32 33 32 33 34 34 38 36 40 41 36 35 41 33 31 30 27 25 25 26 30 31 30 32
29 30 33 32 30 28 27 28 27 34 33 33 35 34 35 37 40 37 31 30 25 20 20 24 27 29 30
31 32 31 30 28 27 25 26 24 24 27 27 28 28 32 34 39 39 35 31 32 28 26 25 22 22 22
32 31 30 29 28 28 26 26 26 20 20 21 22 25 29 31 35 36 36 35 29 23 32 19 14 8 7
30 30 29 30 27 26 26 26 28 28 19 15 18 22 27 32 34 35 36 28 30 27 30 19 10 3 5
29 28 29 30 30 26 26 26 26 23 21 19 22 19 21 31 37 36 33 28 30 24 27 26 16 14 10
26 27 30 30 30 27 25 25 22 20 19 20 22 23 26 33 34 35 35 29 25 22 24 26 21 21 20
Wind_Direction
310 310 307 308 309 311 310 308 306 308 304 301 302 298 292 286 280 277 274 273 272 269 265 262 257 250 246
314 313 309 310 310 308 312 315 316 312 312 314 308 301 296 291 287 282 277 273 272 269 265 263 258 255 244
315 312 315 318 317 317 316 318 316 318 320 307 304 304 301 297 291 284 280 276 275 270 264 261 259 259 255
315 320 323 323 317 317 316 321 316 322 319 317 318 308 301 298 294 291 287 282 276 271 268 264 259 255 251
315 317 322 319 319 319 319 323 327 334 324 321 322 316 312 306 301 295 290 285 281 277 272 267 262 259 253
317 321 320 321 321 322 325 326 329 337 327 324 326 324 321 313 307 298 290 285 281 276 273 269 265 260 255
317 319 319 321 322 326 325 324 326 330 323 318 326 328 325 321 317 303 294 287 281 277 272 269 266 264 260
319 320 321 324 323 323 325 321 321 326 325 316 329 332 332 343 328 311 302 303 298 290 283 278 271 264 259
321 325 324 326 325 320 319 319 321 327 330 319 334 338 340 352 340 326 320 317 308 299 291 284 276 267 259
331 330 329 326 320 320 322 322 324 325 336 327 337 339 340 353 347 334 324 314 303 297 292 285 277 270 259
333 331 327 327 326 325 325 325 328 326 333 330 334 337 335 339 354 350 341 336 320 305 294 288 279 265 261
330 328 330 332 331 331 330 326 331 327 331 330 330 336 342 346 350 352 347 350 347 328 313 297 279 267 257
329 333 335 338 335 332 332 329 337 333 331 331 334 343 349 348 342 348 351 4 356 340 332 320 300 278 261
330 334 336 342 339 333 334 333 337 347 338 338 340 350 352 351 350 353 357 4 357 355 345 340 326 305 248
332 334 337 339 342 337 334 334 336 338 348 343 354 352 353 357 0 2 0 6 1 357 7 3 9 32 146
335 335 335 339 343 345 341 337 337 339 341 347 351 355 359 6 9 7 4 10 18 17 16 16 46 62 86
339 337 337 341 339 342 342 340 345 341 343 353 356 358 14 15 12 14 14 16 27 34 25 27 49 67 81
Height
2902 2897 2885 2871 2865 2856 2849 2844 2838 2834 2826 2820 2817 2812 2807 2803 2800 2798 2796 2794 2794 2795 2796 2798 2801 2805 2810
2886 2879 2869 2862 2854 2845 2838 2832 2826 2821 2815 2810 2802 2797 2793 2788 2784 2781 2779 2778 2778 2778 2778 2780 2782 2784 2790
2868 2863 2856 2848 2839 2833 2827 2821 2816 2810 2806 2799 2793 2788 2782 2777 2772 2767 2764 2761 2761 2761 2761 2762 2764 2767 2771
2857 2849 2844 2839 2831 2822 2817 2814 2806 2804 2797 2789 2785 2778 2772 2766 2761 2755 2751 2747 2745 2744 2743 2744 2746 2749 2753
2850 2843 2838 2831 2824 2816 2808 2803 2797 2793 2783 2777 2774 2768 2763 2757 2751 2745 2739 2734 2731 2729 2729 2729 2729 2731 2735
2842 2836 2830 2823 2817 2809 2801 2794 2788 2786 2774 2769 2764 2758 2752 2745 2739 2731 2726 2721 2718 2715 2715 2714 2714 2716 2718
2836 2832 2823 2817 2810 2802 2796 2788 2782 2778 2769 2758 2757 2749 2742 2734 2727 2718 2711 2706 2703 2702 2701 2700 2699 2700 2703
2833 2825 2818 2811 2804 2796 2789 2781 2776 2772 2762 2748 2749 2740 2732 2725 2718 2710 2702 2697 2692 2689 2688 2687 2686 2686 2687
2828 2821 2815 2808 2800 2792 2786 2775 2767 2764 2760 2744 2739 2728 2723 2720 2713 2705 2698 2691 2685 2681 2678 2676 2674 2673 2673
2822 2816 2810 2805 2798 2788 2779 2770 2761 2754 2753 2739 2732 2724 2713 2713 2707 2699 2692 2687 2679 2673 2667 2664 2663 2661 2660
2815 2810 2805 2799 2791 2784 2775 2767 2760 2751 2746 2736 2729 2724 2716 2703 2701 2694 2685 2678 2670 2664 2659 2653 2650 2648 2648
2811 2806 2799 2792 2785 2778 2772 2765 2759 2749 2743 2737 2728 2721 2713 2704 2694 2688 2680 2671 2663 2656 2650 2644 2638 2635 2636
2806 2800 2793 2787 2780 2774 2769 2762 2757 2750 2741 2735 2727 2721 2713 2704 2694 2686 2674 2666 2658 2651 2644 2636 2629 2626 2626
2801 2795 2789 2784 2777 2769 2763 2756 2751 2748 2741 2733 2727 2720 2713 2705 2695 2685 2675 2662 2656 2649 2641 2631 2626 2622 2621
2797 2791 2785 2779 2774 2766 2759 2753 2747 2740 2738 2733 2727 2721 2713 2704 2694 2684 2673 2665 2657 2650 2643 2634 2627 2624 2623
2793 2787 2781 2775 2768 2763 2757 2750 2744 2740 2735 2730 2725 2721 2714 2705 2693 2685 2677 2666 2659 2654 2648 2641 2633 2629 2627
2790 2784 2777 2771 2765 2759 2754 2748 2744 2739 2734 2729 2724 2719 2711 2705 2699 2690 2679 2670 2664 2660 2654 2649 2641 2637 2635